sat.trackr.live / text

‹ back to catalog

TEVEL2-4

NORAD 63213 · 2025-052D

PAYLOAD ACTIVE UNKNOWN

§ Identity

Operator
Country
ISRA
Launch date
2025-03-15
Launch site
AFWTR
Launch vehicle
Mass (kg)
RCS (m²)

Purposes: comms

External: N2YO · Heavens-Above · Gunter

§ Orbital elements

Epoch: 2026-09-19T23:01:03.804384Z

Period
93.65 min
Inclination
97.3757°
Eccentricity
0.0004446
Mean motion
15.37696233 rev/d
Perigee alt
449.9 km
Apogee alt
456.0 km
Semi-major
6,831.1 km
B*
3.8323e-4
RAAN
159.6486°
Arg perigee
109.3415°
Mean anomaly
250.8311°
Rev number
8,466

§ Raw data

TEVEL2-41 63213U 25052D   26262.95907181  .00014116  00000+0  38323-3 0  99912 63213  97.3757 159.6486 0004446 109.3415 250.8311 15.37696233 84664

JSON: /api/v1/satellites/63213 · /tle

For live sub-satellite position, see the globe view (requires WebGL).

§ Visibility from observer

Set your observer location to see the next 7 days of passes ≥ 10°. The values pass through the URL so the page stays shareable.

No JS? Fill the form by hand. The geolocation button needs JavaScript.

§ Radio — SatNOGS DB

ModeDescriptionDownlinkUplink
BPSK Mode U - BPSK9k6 G3RUH - Beacon 436.400 MHz
FM Mode V/U - FM Transponder 436.400 MHz 145.970 MHz

2 transmitters · refreshed weekly from db.satnogs.org